Location: Caltech
(34.1382°N, 118.1253°W)
Time: 19:03:57
(UTC-08:00)

KITSAT 1 - Visible Passes

Search period start: 17 February 2018 00:00
Search period end: 27 February 2018 00:00
Orbit: 1303 x 1327 km, 66.1° (Epoch: 17 February)

Date Brightness Start Highest point End Pass type
(mag) Time Alt. Az. Time Alt. Az. Time Alt. Az.
17 Feb 11.5 03:19:19 30° N 03:19:19 30° N 03:23:06 10° NNE visible
17 Feb 11.8 05:11:18 13° NW 05:12:16 13° NW 05:15:55 10° N visible
18 Feb 12.6 01:43:08 11° NE 01:43:08 11° NE 01:43:26 10° NE visible
18 Feb 11.5 03:35:07 27° N 03:35:07 27° N 03:38:54 10° NNE visible
19 Feb 12.5 01:58:52 14° NE 01:58:52 14° NE 01:59:52 10° NE visible
19 Feb 11.6 03:50:51 23° NNW 03:50:51 23° NNW 03:54:33 10° N visible
20 Feb 12.3 02:14:35 17° NNE 02:14:35 17° NNE 02:16:03 10° NNE visible
20 Feb 11.8 04:06:33 18° NNW 04:06:33 18° NNW 04:09:59 10° N visible
21 Feb 12.2 02:30:14 18° NNE 02:30:14 18° NNE 02:32:02 10° NNE visible
21 Feb 12.0 04:22:12 13° NNW 04:22:12 13° NNW 04:24:58 10° N visible
22 Feb 12.1 02:45:51 18° N 02:45:51 18° N 02:47:52 10° NNE visible
23 Feb 12.1 03:01:27 17° N 03:01:27 17° N 03:03:32 10° N visible
24 Feb 12.1 03:17:01 15° N 03:17:01 15° N 03:18:58 10° N visible
25 Feb 12.6 01:40:35 12° NNE 01:40:35 12° NNE 01:40:58 10° NNE visible
25 Feb 12.2 03:32:33 12° NNW 03:32:33 12° NNW 03:34:00 10° N visible
26 Feb 12.5 01:56:06 13° NNE 01:56:06 13° NNE 01:56:49 10° NNE visible
